Weather History for KAQW - April, 2013

Change the Weather History Date:

Monday, April 1, 2013

  Actual Average Record
Temperature  
Mean Temperature 42 °F -  
Max Temperature 55 °F 46 °F 71 °F (1998)
Min Temperature 28 °F 28 °F 21 °F (2007)
Degree Days  
Heating Degree Days 24    
Moisture  
Dew Point 29 °F    
Average Humidity 71    
Maximum Humidity 93    
Minimum Humidity 34    
Precipitation  
Precipitation 0.11 in - - ()
Sea Level Pressure  
Sea Level Pressure 29.68 in    
Wind  
Wind Speed 4 mph (West)    
Max Wind Speed 16 mph    
Max Gust Speed 31 mph    
Visibility 8 miles    
Events Rain , Snow    
Averages and records for this station are not official NWS values.
T = Trace of Precipitation, MM = Missing Value Source: NWS Daily Summary

Daily Weather History Graph

Daily Weather History Graph

Search for Another Location

Airport or City:

Trip Planner

Search our weather history database for the weather conditions in past years. The results will help you decide how hot, cold, wet, or windy it might be!

Date:

Astronomy

Apr. 01, 2013 Rise Set
Actual Time 6:34 AM EDT 7:19 PM EDT
Civil Twilight 6:06 AM EDT 7:47 PM EDT
Nautical Twilight 5:32 AM EDT 8:21 PM EDT
Astronomical Twilight 4:57 AM EDT 8:56 PM EDT
Moon 12:30 AM EDT (4/1) 10:12 AM EDT (4/1)
Length of Visible Light 13h 41m
Length of Day
12h 44m
Waning Gibbous, 67% of the Moon is Illuminated
Apr 1
Waning Gibbous
Apr 3
Last Quarter
Apr 10
New
Apr 18
First Quarter
Apr 25
Full

Hourly Weather History & Observations

Time (EDT) Temp. Windchill Dew Point Humidity Pressure Visibility Wind Dir Wind Speed Gust Speed Precip Events Conditions
1:49 AM 39.2 °F 37.0 °F 33.8 °F 81% 29.66 in 10.0 mi SE 3.5 mph - 0.07 in Rain Light Rain
1:52 AM 39.0 °F - 33.1 °F 79% 29.67 in 10.0 mi Calm Calm - 0.07 in Rain Light Rain
2:13 AM 37.4 °F - 33.8 °F 87% 29.65 in 10.0 mi Calm Calm - 0.00 in   Overcast
2:20 AM 37.4 °F - 33.8 °F 87% 29.65 in 10.0 mi Calm Calm - 0.00 in   Overcast
2:28 AM 37.4 °F - 33.8 °F 87% 29.65 in 10.0 mi Calm Calm - 0.00 in   Overcast
2:45 AM 37.4 °F - 35.6 °F 93% 29.65 in 8.0 mi Calm Calm - 0.00 in   Overcast
2:52 AM 37.9 °F - 35.1 °F 89% 29.65 in 7.0 mi Calm Calm - 0.00 in Rain Light Rain
3:18 AM 37.4 °F - 33.8 °F 87% 29.63 in 7.0 mi Calm Calm - 0.00 in   Overcast
3:52 AM 37.0 °F - 34.0 °F 89% 29.63 in 7.0 mi Calm Calm - 0.00 in   Overcast
4:00 AM 37.4 °F - 33.8 °F 87% 29.62 in 9.0 mi Calm Calm - N/A   Overcast
4:52 AM 37.0 °F - 34.0 °F 89% 29.64 in 7.0 mi Calm Calm - N/A   Overcast
5:36 AM 37.4 °F - 35.6 °F 93% 29.63 in 9.0 mi Calm Calm - N/A   Overcast
5:50 AM 37.4 °F - 33.8 °F 87% 29.64 in 7.0 mi Calm Calm - N/A   Overcast
5:52 AM 37.0 °F - 34.0 °F 89% 29.65 in 7.0 mi Calm Calm - N/A   Overcast
6:52 AM 37.9 °F - 35.1 °F 89% 29.67 in 6.0 mi Calm Calm - N/A   Overcast
7:38 AM 37.4 °F - 35.6 °F 93% 29.65 in 7.0 mi Calm Calm - N/A   Overcast
7:52 AM 39.0 °F - 35.1 °F 86% 29.66 in 6.0 mi Calm Calm - N/A   Overcast
8:52 AM 42.1 °F - 36.0 °F 79% 29.63 in 10.0 mi Calm Calm - N/A   Scattered Clouds
9:52 AM 48.0 °F - 37.0 °F 66% 29.60 in 10.0 mi Variable 3.5 mph - 0.01 in   Scattered Clouds
10:52 AM 52.0 °F - 37.0 °F 57% 29.58 in 10.0 mi SW 6.9 mph - N/A   Mostly Cloudy
11:52 AM 53.1 °F - 35.1 °F 50% 29.57 in 10.0 mi SW 8.1 mph - N/A   Overcast
12:52 PM 43.0 °F 37.7 °F 36.0 °F 76% 29.61 in 3.0 mi WNW 9.2 mph 31.1 mph 0.00 in Rain Light Rain
1:13 PM 42.8 °F 41.1 °F 35.6 °F 76% 29.60 in 3.0 mi Variable 3.5 mph - 0.02 in Rain Light Rain
1:52 PM 43.0 °F 38.2 °F 35.1 °F 74% 29.62 in 10.0 mi West 8.1 mph - 0.03 in Rain Light Rain
2:52 PM 37.9 °F 29.6 °F 30.0 °F 73% 29.69 in 9.0 mi West 13.8 mph 25.3 mph 0.00 in Rain Light Rain
3:08 PM 37.4 °F 30.3 °F 26.6 °F 65% 29.67 in 10.0 mi West 10.4 mph 23.0 mph 0.00 in   Overcast
3:52 PM 37.0 °F 31.0 °F 24.1 °F 59% 29.71 in 10.0 mi West 8.1 mph 20.7 mph 0.00 in   Overcast
4:10 PM 35.6 °F 26.2 °F 24.8 °F 65% 29.70 in 2.5 mi West 15.0 mph 25.3 mph 0.00 in Snow Light Snow
4:14 PM 35.6 °F 27.1 °F 24.8 °F 65% 29.70 in 1.8 mi West 12.7 mph 31.1 mph 0.00 in Snow Light Snow
4:22 PM 35.6 °F 28.0 °F 24.8 °F 65% 29.70 in 2.5 mi WSW 10.4 mph 19.6 mph 0.00 in Snow Light Snow
4:28 PM 35.6 °F 28.0 °F 24.8 °F 65% 29.70 in 5.0 mi WSW 10.4 mph - 0.00 in Snow Light Snow
4:52 PM 37.0 °F 31.6 °F 21.9 °F 54% 29.73 in 10.0 mi Variable 6.9 mph 18.4 mph 0.00 in   Overcast
5:52 PM 39.0 °F 31.4 °F 18.0 °F 43% 29.73 in 10.0 mi WNW 12.7 mph 27.6 mph N/A   Overcast
6:52 PM 36.0 °F 27.1 °F 12.0 °F 37% 29.75 in 10.0 mi WNW 13.8 mph 27.6 mph N/A   Scattered Clouds
7:52 PM 34.0 °F 24.2 °F 8.1 °F 34% 29.78 in 10.0 mi West 15.0 mph 24.2 mph N/A   Clear
8:52 PM 33.1 °F 24.9 °F 9.0 °F 37% 29.81 in 10.0 mi WNW 10.4 mph 21.9 mph N/A   Clear
9:52 PM 30.9 °F 20.7 °F 10.9 °F 43% 29.85 in 10.0 mi West 13.8 mph 23.0 mph N/A   Partly Cloudy
10:52 PM 30.0 °F 19.1 °F 10.9 °F 45% 29.86 in 10.0 mi West 15.0 mph 24.2 mph N/A   Partly Cloudy
11:52 PM 28.9 °F 17.3 °F 10.0 °F 45% 29.85 in 10.0 mi West 16.1 mph 25.3 mph N/A   Partly Cloudy